| time (UTC) | temp C | wind direction | speed KPH | gust KPH | rain 1hr cm | rain 24hr cm | rain mn cm | humidity % | barometer mb |
| 20260505041027 | 12 | 112 | 3.2 | 4.8 | 0.05 | 0.51 | 0.51 | 99 | 9.7 |
| 20260505040028 | 12 | 90 | 3.2 | 4.8 | 0.05 | 0.51 | 0.51 | 99 | 9.9 |
| 20260505035027 | 12 | 112 | 4.8 | 6.4 | 0.03 | 0.51 | 0.51 | 99 | 9.9 |
| 20260505034027 | 12 | 90 | 4.8 | 9.7 | 0.03 | 0.51 | 0.51 | 99 | 10.0 |
| 20260505033027 | 12 | 112 | 3.2 | 4.8 | 0.03 | 0.48 | 0.48 | 98 | 10.1 |
| 20260505032027 | 12 | 112 | 1.6 | 4.8 | 0.03 | 0.48 | 0.48 | 98 | 10.2 |
| 20260505031027 | 12 | 112 | 1.6 | 6.4 | 0.05 | 0.48 | 0.48 | 98 | 10.3 |
| 20260505030027 | 12 | 135 | 1.6 | 4.8 | 0.08 | 0.48 | 0.48 | 98 | 10.4 |
| 20260505025027 | 12 | 112 | 3.2 | 4.8 | 0.15 | 0.48 | 0.48 | 98 | 10.4 |
| 20260505024027 | 12 | 135 | 4.8 | 8.0 | 0.18 | 0.48 | 0.48 | 99 | 10.6 |
| 20260505023027 | 12 | 135 | 3.2 | 6.4 | 0.20 | 0.46 | 0.46 | 98 | 10.7 |
| 20260505022027 | 12 | 112 | 4.8 | 11.3 | 0.23 | 0.46 | 0.46 | 99 | 10.7 |
| 20260505021027 | 12 | 112 | 4.8 | 8.0 | 0.23 | 0.43 | 0.43 | 99 | 10.8 |
| 20260505020027 | 12 | 135 | 4.8 | 9.7 | 0.23 | 0.41 | 0.41 | 99 | 10.8 |
| 20260505015027 | 12 | 112 | 4.8 | 9.7 | 0.18 | 0.33 | 0.33 | 99 | 10.9 |
| 20260505014027 | 12 | 112 | 4.8 | 9.7 | 0.15 | 0.30 | 0.30 | 98 | 10.9 |
| 20260505013027 | 12 | 112 | 4.8 | 6.4 | 0.15 | 0.25 | 0.25 | 98 | 11.0 |
| 20260505012027 | 12 | 112 | 3.2 | 6.4 | 0.13 | 0.23 | 0.23 | 98 | 11.0 |
| 20260505011027 | 12 | 135 | 3.2 | 6.4 | 0.13 | 0.20 | 0.20 | 98 | 11.1 |
| 20260505005027 | 12 | 135 | 3.2 | 6.4 | 0.13 | 0.15 | 0.15 | 98 | 11.3 |
| 20260505004027 | 12 | 135 | 3.2 | 6.4 | 0.13 | 0.15 | 0.15 | 98 | 11.4 |
| 20260505003027 | 12 | 135 | 1.6 | 4.8 | 0.13 | 0.13 | 0.13 | 98 | 11.6 |
| 20260505002027 | 12 | 135 | 0.0 | 1.6 | 0.10 | 0.10 | 0.10 | 98 | 11.6 |
| 20260504235027 | 12 | 135 | 0.0 | 4.8 | 0.05 | 0.05 | 0.05 | 98 | 11.8 |
| 20260504233027 | 12 | 135 | 0.0 | 1.6 | 0.00 | 0.00 | 0.00 | 98 | 11.9 |
| 20260504232027 | 11 | 0 | 0.0 | 0.0 | 0.00 | 0.00 | 0.00 | 98 | 11.8 |
| 20260504230027 | 11 | 0 | 0.0 | 0.0 | 0.00 | 0.00 | 0.00 | 99 | 11.8 |
| 20260504224027 | 11 | 0 | 0.0 | 0.0 | 0.00 | 0.00 | 0.00 | 98 | 11.9 |
| 20260504222027 | 11 | 0 | 0.0 | 0.0 | 0.00 | 0.00 | 0.00 | 98 | 11.7 |
| 20260504221027 | 11 | 0 | 0.0 | 0.0 | 0.00 | 0.00 | 0.00 | 98 | 11.8 |
| 20260504220027 | 11 | 0 | 0.0 | 0.0 | 0.00 | 0.64 | 0.64 | 98 | 11.8 |
| 20260504215027 | 11 | 0 | 0.0 | 0.0 | 0.00 | 0.64 | 0.64 | 98 | 12.0 |
| 20260504214027 | 10 | 0 | 0.0 | 0.0 | 0.00 | 0.64 | 0.64 | 97 | 12.0 |
| 20260504213027 | 11 | 0 | 0.0 | 0.0 | 0.00 | 0.64 | 0.64 | 97 | 12.0 |
| 20260504211027 | 11 | 0 | 0.0 | 0.0 | 0.00 | 0.64 | 0.64 | 97 | 12.0 |
| 20260504210027 | 11 | 0 | 0.0 | 0.0 | 0.00 | 0.64 | 0.64 | 97 | 12.1 |
| 20260504205027 | 11 | 0 | 0.0 | 0.0 | 0.00 | 0.64 | 0.64 | 96 | 12.2 |
| 20260504204026 | 11 | 0 | 0.0 | 0.0 | 0.00 | 0.64 | 0.64 | 96 | 12.2 |
| 20260504203027 | 11 | 0 | 0.0 | 0.0 | 0.00 | 0.64 | 0.64 | 95 | 12.4 |
| 20260504202027 | 11 | 0 | 0.0 | 0.0 | 0.00 | 0.64 | 0.64 | 95 | 12.3 |
| 20260504201027 | 12 | 0 | 0.0 | 0.0 | 0.00 | 0.64 | 0.64 | 94 | 12.3 |
| 20260504200027 | 12 | 225 | 0.0 | 4.8 | 0.00 | 0.64 | 0.64 | 93 | 12.3 |
| 20260504195027 | 12 | 225 | 1.6 | 4.8 | 0.00 | 0.64 | 0.64 | 93 | 12.2 |
| 20260504194026 | 12 | 225 | 0.0 | 3.2 | 0.00 | 0.64 | 0.64 | 92 | 12.1 |
| 20260504193027 | 12 | 225 | 1.6 | 6.4 | 0.00 | 0.64 | 0.64 | 92 | 12.1 |
| 20260504192027 | 13 | 225 | 0.0 | 4.8 | 0.00 | 0.64 | 0.64 | 91 | 12.1 |
| 20260504191026 | 13 | 0 | 0.0 | 0.0 | 0.00 | 0.64 | 0.64 | 90 | 12.1 |
| 20260504190027 | 13 | 202 | 1.6 | 6.4 | 0.00 | 0.64 | 0.64 | 90 | 12.2 |
| 20260504184026 | 13 | 180 | 4.8 | 11.3 | 0.00 | 0.64 | 0.64 | 88 | 12.2 |
| 20260504182027 | 13 | 157 | 6.4 | 19.3 | 0.00 | 0.64 | 0.64 | 88 | 12.3 |
| 20260504180027 | 14 | 157 | 6.4 | 14.5 | 0.00 | 0.64 | 0.64 | 86 | 12.3 |
| 20260504174026 | 15 | 225 | 4.8 | 14.5 | 0.00 | 0.64 | 0.64 | 87 | 12.2 |
| 20260504173027 | 15 | 180 | 6.4 | 12.9 | 0.00 | 0.64 | 0.64 | 86 | 12.3 |
| 20260504172026 | 15 | 180 | 1.6 | 4.8 | 0.00 | 0.64 | 0.64 | 87 | 12.4 |
| 20260504171026 | 15 | 180 | 3.2 | 11.3 | 0.00 | 0.64 | 0.64 | 86 | 12.5 |
| 20260504151026 | 14 | 157 | 9.7 | 22.5 | 0.00 | 0.64 | 0.64 | 93 | 13.3 |
| 20260504141026 | 12 | 157 | 6.4 | 14.5 | 0.00 | 0.64 | 0.64 | 94 | 13.9 |
| 20260504081030 | 12 | 157 | 4.8 | 11.3 | 0.05 | 0.56 | 0.56 | 93 | 15.0 |